When you browse on this site, cookies collect data to enhance your experience and personalize the content and advertising you see.
Visit our Privacy Policy to learn more. By continuing to use the site, you agree to this use of cookies and data.
  • In Hungary
  • List of Countries
  • For 7 days
  • Water Temperature
  • Weather Map
  • News
  • Weather Widgets
  • user-avatar
    Login

    Hourly Weather Sumino

    Today, 29 January, Wednesday

    Time Temperature Precipitation Wind Pressure Humidity
    00:00 -2°C° 0.1 mm 2 mps 732 mmHg 95%
    01:00 -1°C° 0.1 mm 2 mps 732 mmHg 96%
    02:00 -1°C° 0 mm 2 mps 732 mmHg 95%
    03:00 -1°C° 0 mm 2 mps 731 mmHg 94%
    04:00 -1°C° 0 mm 3 mps 731 mmHg 94%
    05:00 -1°C° 0 mm 3 mps 731 mmHg 93%
    06:00 -1°C° 0 mm 3 mps 731 mmHg 93%
    07:00 -1°C° 0 mm 3 mps 731 mmHg 93%
    08:00 -2°C° 0 mm 3 mps 731 mmHg 92%
    09:00 -2°C° 0 mm 3 mps 731 mmHg 91%
    10:00 -2°C° 0 mm 4 mps 730 mmHg 90%
    11:00 -2°C° 0 mm 4 mps 730 mmHg 88%
    12:00 -2°C° 0 mm 4 mps 730 mmHg 86%
    13:00 0°C° 0 mm 3 mps 730 mmHg 83%
    14:00 0°C° 0 mm 3 mps 730 mmHg 81%
    15:00 0°C° 0 mm 3 mps 730 mmHg 84%
    16:00 0°C° 0 mm 3 mps 729 mmHg 87%
    17:00 -1°C° 0 mm 3 mps 729 mmHg 91%
    18:00 -1°C° 0 mm 3 mps 729 mmHg 92%
    19:00 -1°C° 0 mm 4 mps 729 mmHg 94%
    20:00 -1°C° 0 mm 4 mps 729 mmHg 96%
    21:00 -1°C° 0 mm 4 mps 728 mmHg 96%
    22:00 -1°C° 0 mm 4 mps 728 mmHg 96%
    23:00 -1°C° 0 mm 4 mps 728 mmHg 97%

    Tomorrow, 30 January, Thursday

    Time Temperature Precipitation Wind Pressure Humidity
    00:00 -1°C° 0.1 mm 4 mps 727 mmHg 96%
    01:00 -1°C° 0.1 mm 4 mps 727 mmHg 96%
    02:00 -1°C° 0.1 mm 4 mps 727 mmHg 96%
    03:00 -1°C° 0.1 mm 4 mps 726 mmHg 96%
    04:00 -1°C° 0.1 mm 4 mps 726 mmHg 96%
    05:00 -2°C° 0.1 mm 4 mps 725 mmHg 96%
    06:00 -2°C° 0 mm 4 mps 725 mmHg 95%
    07:00 -2°C° 0 mm 4 mps 725 mmHg 94%
    08:00 -2°C° 0 mm 4 mps 725 mmHg 93%
    09:00 -2°C° 0.1 mm 4 mps 725 mmHg 93%
    10:00 -2°C° 0.1 mm 4 mps 724 mmHg 92%
    11:00 -2°C° 0.1 mm 4 mps 724 mmHg 91%
    12:00 -2°C° 0.4 mm 4 mps 724 mmHg 93%
    13:00 -2°C° 0.4 mm 4 mps 724 mmHg 94%
    14:00 -2°C° 0.4 mm 4 mps 724 mmHg 96%
    15:00 -1°C° 0.6 mm 3 mps 724 mmHg 96%
    16:00 -1°C° 0.6 mm 3 mps 724 mmHg 96%
    17:00 -1°C° 0.6 mm 2 mps 724 mmHg 96%
    18:00 -2°C° 0.1 mm 2 mps 725 mmHg 95%
    19:00 -2°C° 0.1 mm 2 mps 725 mmHg 95%
    20:00 -1°C° 0.1 mm 1 mps 725 mmHg 95%
    21:00 -1°C° 0 mm 1 mps 725 mmHg 95%
    22:00 -1°C° 0 mm 1 mps 725 mmHg 95%
    23:00 -1°C° 0 mm 1 mps 725 mmHg 95%

    Day after tomorrow, 31 January, Friday

    Time Temperature Precipitation Wind Pressure Humidity
    00:00 -2°C° 0 mm 0 mps 725 mmHg 95%
    01:00 -2°C° 0 mm 0 mps 725 mmHg 95%
    02:00 -3°C° 0 mm 0 mps 726 mmHg 94%
    03:00 -3°C° 0 mm 0 mps 726 mmHg 95%
    04:00 -3°C° 0 mm 0 mps 725 mmHg 95%
    05:00 -3°C° 0 mm 0 mps 725 mmHg 95%
    06:00 -2°C° 0.1 mm 0 mps 726 mmHg 95%
    07:00 -2°C° 0.1 mm 0 mps 726 mmHg 95%
    08:00 -1°C° 0.1 mm 1 mps 726 mmHg 95%
    09:00 -1°C° 0.1 mm 1 mps 726 mmHg 93%
    10:00 0°C° 0.1 mm 1 mps 726 mmHg 91%
    11:00 0°C° 0.1 mm 1 mps 726 mmHg 89%
    12:00 +1°C° 0.1 mm 1 mps 727 mmHg 90%
    13:00 +1°C° 0.1 mm 1 mps 727 mmHg 91%
    14:00 +1°C° 0.1 mm 1 mps 727 mmHg 92%
    15:00 +1°C° 0.1 mm 1 mps 727 mmHg 94%
    16:00 0°C° 0.1 mm 1 mps 727 mmHg 96%
    17:00 0°C° 0.1 mm 1 mps 728 mmHg 97%
    18:00 0°C° 0.1 mm 1 mps 728 mmHg 97%
    19:00 0°C° 0.1 mm 1 mps 729 mmHg 97%
    20:00 -1°C° 0.1 mm 1 mps 729 mmHg 97%
    21:00 -1°C° 0 mm 1 mps 729 mmHg 97%
    22:00 -1°C° 0 mm 1 mps 730 mmHg 97%
    23:00 -1°C° 0 mm 1 mps 730 mmHg 97%

    1 February, Saturday

    Time Temperature Precipitation Wind Pressure Humidity
    00:00 -2°C° 0 mm 1 mps 730 mmHg 97%
    01:00 -2°C° 0 mm 1 mps 730 mmHg 97%
    02:00 -2°C° 0 mm 1 mps 731 mmHg 97%
    03:00 -2°C° 0 mm 1 mps 731 mmHg 96%
    04:00 -2°C° 0 mm 1 mps 731 mmHg 96%
    05:00 -2°C° 0 mm 1 mps 731 mmHg 96%
    06:00 -2°C° 0 mm 1 mps 732 mmHg 95%
    07:00 -2°C° 0 mm 1 mps 732 mmHg 95%
    08:00 -2°C° 0 mm 1 mps 732 mmHg 95%
    09:00 -1°C° 0 mm 1 mps 732 mmHg 91%
    10:00 -1°C° 0 mm 1 mps 733 mmHg 87%
    11:00 0°C° 0 mm 1 mps 733 mmHg 84%
    12:00 -2°C° 0 mm 2 mps 733 mmHg 83%
    13:00 -1°C° 0 mm 2 mps 733 mmHg 81%
    14:00 -1°C° 0 mm 2 mps 733 mmHg 80%
    15:00 -1°C° 0 mm 2 mps 733 mmHg 83%
    16:00 -2°C° 0 mm 2 mps 733 mmHg 85%
    17:00 -2°C° 0 mm 2 mps 733 mmHg 88%
    18:00 -2°C° 0 mm 3 mps 733 mmHg 89%
    19:00 -2°C° 0 mm 3 mps 732 mmHg 89%
    20:00 -2°C° 0 mm 3 mps 732 mmHg 90%
    21:00 -1°C° 0 mm 3 mps 732 mmHg 92%
    22:00 -2°C° 0 mm 4 mps 732 mmHg 93%
    23:00 -2°C° 0 mm 4 mps 731 mmHg 94%

    2 February, Sunday

    Time Temperature Precipitation Wind Pressure Humidity
    00:00 -2°C° 0 mm 4 mps 731 mmHg 94%
    01:00 -2°C° 0 mm 4 mps 731 mmHg 94%
    02:00 -1°C° 0 mm 5 mps 731 mmHg 94%
    03:00 -1°C° 0 mm 5 mps 730 mmHg 94%
    04:00 -1°C° 0 mm 5 mps 729 mmHg 95%
    05:00 -1°C° 0 mm 5 mps 729 mmHg 95%
    06:00 0°C° 0.2 mm 5 mps 728 mmHg 94%
    07:00 0°C° 0.2 mm 5 mps 728 mmHg 94%
    08:00 -1°C° 0.2 mm 6 mps 727 mmHg 93%
    09:00 +1°C° 0.5 mm 5 mps 727 mmHg 94%
    10:00 +1°C° 0.5 mm 5 mps 726 mmHg 94%
    11:00 +1°C° 0.5 mm 5 mps 726 mmHg 94%
    12:00 +1°C° 1.1 mm 5 mps 726 mmHg 95%
    13:00 +1°C° 1.1 mm 4 mps 726 mmHg 95%
    14:00 +1°C° 1.1 mm 4 mps 725 mmHg 96%
    15:00 +1°C° 0.8 mm 4 mps 725 mmHg 95%
    16:00 +1°C° 0.8 mm 4 mps 725 mmHg 94%
    17:00 +1°C° 0.8 mm 4 mps 726 mmHg 93%
    18:00 +1°C° 0 mm 4 mps 726 mmHg 93%
    19:00 +1°C° 0 mm 3 mps 726 mmHg 92%
    20:00 +1°C° 0 mm 3 mps 726 mmHg 91%
    21:00 +1°C° 0 mm 3 mps 726 mmHg 92%
    22:00 +1°C° 0 mm 3 mps 727 mmHg 94%
    23:00 +1°C° 0 mm 3 mps 727 mmHg 95%

    3 February, Monday

    Time Temperature Precipitation Wind Pressure Humidity
    00:00 +1°C° 0.1 mm 3 mps 726 mmHg 96%
    01:00 +1°C° 0.1 mm 3 mps 726 mmHg 96%
    02:00 +1°C° 0.1 mm 3 mps 726 mmHg 97%
    03:00 +1°C° 0.3 mm 3 mps 726 mmHg 97%
    04:00 +1°C° 0.3 mm 3 mps 726 mmHg 97%
    05:00 +1°C° 0.3 mm 3 mps 726 mmHg 97%
    06:00 +1°C° 0.2 mm 3 mps 726 mmHg 96%
    07:00 +1°C° 0.2 mm 3 mps 726 mmHg 95%
    08:00 0°C° 0.2 mm 3 mps 726 mmHg 94%
    09:00 0°C° 0 mm 3 mps 727 mmHg 91%
    10:00 0°C° 0 mm 3 mps 727 mmHg 87%
    11:00 -1°C° 0 mm 4 mps 728 mmHg 84%
    12:00 -1°C° 0 mm 4 mps 728 mmHg 82%
    13:00 -1°C° 0 mm 4 mps 728 mmHg 80%
    14:00 -1°C° 0 mm 4 mps 728 mmHg 78%
    15:00 -1°C° 0 mm 3 mps 729 mmHg 80%
    16:00 -1°C° 0 mm 3 mps 729 mmHg 83%
    17:00 -2°C° 0 mm 3 mps 729 mmHg 85%
    18:00 -2°C° 0 mm 3 mps 729 mmHg 86%
    19:00 -2°C° 0 mm 3 mps 730 mmHg 87%
    20:00 -2°C° 0 mm 3 mps 730 mmHg 88%
    21:00 -4°C° 0 mm 3 mps 730 mmHg 88%
    22:00 -4°C° 0 mm 3 mps 730 mmHg 88%
    23:00 -4°C° 0 mm 3 mps 731 mmHg 87%
    Show more